Location: ????????
(55.3975°N, 38.2844°E)
Time: 06:10:14
(UTC+00:00)

BlueWalker 3 - Pass Details

Date: 19 August 2024
Orbit: 476 x 487 km, 53.2° (Epoch: 08 September)

Event Time Altitude Azimuth Distance (km) Brightness Sun altitude
Exits shadow 23:22:25 47° 239° (WSW) 657 2.1 -18.3°
Maximum altitude 23:23:13 61° 187° (S) 564 1.8 -18.2°
Drops below altitude 10° 23:26:58 10° 107° (ESE) 1,686 4.7 -18.0°
Sets 23:29:10 0° 104° (ESE) 2,567 5.8 -17.8°
